| time (UTC) | temp F | wind direction | speed MPH | gust MPH | rain 1hr in | rain 24hr in | rain mn in | humidity % | barometer mb |
| 20260505061538 | 54 | 105 | 0.0 | 0.0 | 0.07 | 0.54 | 0.54 | 95 | 1020.9 |
| 20260505060032 | 54 | 105 | 0.0 | 0.0 | 0.05 | 0.51 | 0.51 | 95 | 1021.2 |
| 20260505054538 | 54 | 105 | 0.0 | 0.0 | 0.02 | 0.48 | 0.48 | 95 | 1021.2 |
| 20260505053039 | 54 | 105 | 0.0 | 0.0 | 0.06 | 0.47 | 0.47 | 94 | 1021.0 |
| 20260505051539 | 54 | 105 | 0.0 | 6.0 | 0.13 | 0.47 | 0.47 | 94 | 1021.0 |
| 20260505041528 | 54 | 105 | 0.0 | 0.0 | 0.16 | 0.34 | 0.34 | 94 | 1021.1 |
| 20260505040028 | 54 | 105 | 0.0 | 0.0 | 0.12 | 0.28 | 0.28 | 93 | 1021.2 |
| 20260505034527 | 54 | 105 | 0.0 | 0.0 | 0.11 | 0.25 | 0.25 | 93 | 1021.2 |
| 20260505033027 | 54 | 105 | 0.0 | 2.0 | 0.08 | 0.21 | 0.21 | 92 | 1021.1 |
| 20260505031531 | 55 | 105 | 0.0 | 4.0 | 0.07 | 0.18 | 0.18 | 92 | 1021.3 |
| 20260505030024 | 55 | 105 | 0.0 | 3.0 | 0.06 | 0.16 | 0.16 | 92 | 1020.9 |
| 20260505024524 | 56 | 105 | 1.0 | 6.0 | 0.06 | 0.14 | 0.14 | 92 | 1020.5 |
| 20260505023023 | 56 | 105 | 0.0 | 4.0 | 0.06 | 0.13 | 0.13 | 92 | 1019.9 |
| 20260505021524 | 56 | 105 | 0.0 | 3.0 | 0.04 | 0.11 | 0.11 | 92 | 1020.2 |
| 20260505020028 | 56 | 105 | 0.0 | 3.0 | 0.03 | 0.10 | 0.10 | 91 | 1020.2 |
| 20260505014521 | 56 | 105 | 0.0 | 0.0 | 0.01 | 0.08 | 0.08 | 90 | 1020.3 |
| 20260505013027 | 56 | 105 | 0.0 | 3.0 | 0.00 | 0.07 | 0.07 | 89 | 1020.2 |
| 20260505011526 | 56 | 105 | 0.0 | 0.0 | 0.01 | 0.07 | 0.07 | 90 | 1020.4 |
| 20260505010030 | 56 | 105 | 0.0 | 3.0 | 0.03 | 0.07 | 0.07 | 89 | 1020.7 |
| 20260505004520 | 56 | 105 | 0.0 | 4.0 | 0.03 | 0.07 | 0.07 | 89 | 1020.9 |
| 20260505003018 | 56 | 105 | 1.0 | 6.0 | 0.05 | 0.07 | 0.07 | 89 | 1020.8 |
| 20260505001518 | 57 | 105 | 0.0 | 4.0 | 0.05 | 0.06 | 0.06 | 88 | 1020.8 |
| 20260505000032 | 57 | 106 | 0.0 | 7.0 | 0.04 | 0.04 | 0.04 | 88 | 1020.7 |
| 20260504234517 | 57 | 107 | 0.0 | 7.0 | 0.04 | 0.04 | 0.04 | 87 | 1020.6 |
| 20260504233016 | 58 | 107 | 1.0 | 7.0 | 0.02 | 0.02 | 0.02 | 86 | 1020.7 |
| 20260504231515 | 59 | 119 | 0.0 | 7.0 | 0.01 | 0.01 | 0.01 | 83 | 1020.7 |
| 20260504230015 | 60 | 129 | 1.0 | 5.0 | 0.00 | 0.00 | 0.00 | 80 | 1020.8 |
| 20260504224514 | 61 | 131 | 1.0 | 3.0 | 0.00 | 0.00 | 0.00 | 75 | 1020.9 |
| 20260504223014 | 61 | 131 | 0.0 | 0.0 | 0.00 | 0.00 | 0.00 | 68 | 1021.0 |
| 20260504221534 | 61 | 131 | 0.0 | 0.0 | 0.00 | 0.00 | 0.00 | 65 | 1021.0 |
| 20260504220014 | 62 | 131 | 0.0 | 0.0 | 0.00 | 0.00 | 0.00 | 65 | 1021.0 |
| 20260504214513 | 62 | 131 | 0.0 | 0.0 | 0.00 | 0.00 | 0.00 | 64 | 1021.1 |
| 20260504213012 | 62 | 131 | 0.0 | 0.0 | 0.00 | 0.00 | 0.00 | 66 | 1021.1 |
| 20260504211511 | 62 | 131 | 0.0 | 0.0 | 0.00 | 0.00 | 0.00 | 67 | 1021.2 |
| 20260504210009 | 62 | 131 | 0.0 | 3.0 | 0.00 | 0.00 | 0.00 | 69 | 1021.1 |
| 20260504204505 | 61 | 131 | 0.0 | 4.0 | 0.00 | 0.00 | 0.00 | 72 | 1021.0 |
| 20260504203002 | 60 | 131 | 1.0 | 4.0 | 0.00 | 0.00 | 0.00 | 74 | 1021.1 |
| 20260504201600 | 60 | 131 | 0.0 | 3.0 | 0.00 | 0.00 | 0.00 | 75 | 1021.1 |
| 20260504200100 | 60 | 131 | 1.0 | 4.0 | 0.00 | 0.00 | 0.00 | 75 | 1021.2 |
| 20260504194600 | 60 | 131 | 0.0 | 4.0 | 0.00 | 0.00 | 0.00 | 75 | 1021.4 |
| 20260504193100 | 59 | 133 | 1.0 | 5.0 | 0.00 | 0.00 | 0.00 | 77 | 1021.2 |
| 20260504191556 | 59 | 133 | 0.0 | 4.0 | 0.00 | 0.00 | 0.00 | 78 | 1021.4 |
| 20260504190053 | 59 | 133 | 1.0 | 7.0 | 0.00 | 0.00 | 0.00 | 79 | 1021.4 |
| 20260504184551 | 59 | 132 | 0.0 | 5.0 | 0.00 | 0.00 | 0.00 | 80 | 1021.4 |
| 20260504183050 | 58 | 132 | 0.0 | 3.0 | 0.00 | 0.00 | 0.00 | 80 | 1021.4 |
| 20260504181551 | 58 | 132 | 0.0 | 3.0 | 0.00 | 0.00 | 0.00 | 78 | 1021.4 |
| 20260504180050 | 58 | 132 | 0.0 | 3.0 | 0.00 | 0.00 | 0.00 | 78 | 1021.3 |
| 20260504174547 | 58 | 132 | 1.0 | 8.0 | 0.00 | 0.00 | 0.00 | 76 | 1021.2 |
| 20260504173046 | 58 | 132 | 2.0 | 7.0 | 0.00 | 0.00 | 0.00 | 76 | 1021.2 |
| 20260504171544 | 58 | 132 | 1.0 | 7.0 | 0.00 | 0.00 | 0.00 | 75 | 1021.1 |
| 20260504100108 | 54 | 161 | 0.0 | 2.0 | 0.00 | 0.00 | 0.00 | 81 | 1019.8 |
| 20260504081555 | 55 | 161 | 0.0 | 1.0 | 0.00 | 0.00 | 0.00 | 80 | 1019.8 |
| 20260504080111 | 55 | 161 | 0.0 | 0.0 | 0.00 | 0.00 | 0.00 | 80 | 1019.8 |